User: anonymous   Login
Location: Strawberry
(45.6646°N, 111.9596°W)
Time: 08:12:32
(UTC+00:00)
Language:

XW-2B - Orbit

View from above orbital plane
View from above orbital plane
View from above satellite
View from above satellite

Ground track
Ground track

The orbit data is extracted from the following two-line orbital elements,

1 40911U 15049N   22329.80853647  .00005762  00000-0  25664-3 0  9999
2 40911  97.4932 332.8419 0013302 143.8881 293.4748 15.21766251397375
Epoch (UTC): 25 November 2022 19:24:17
Eccentricity: 0.0013302
inclination: 97.4932°
perigee height: 491 km
apogee height: 509 km
right ascension of ascending node: 332.8419°
argument of perigee: 143.8881°
revolutions per day: 15.21766251
mean anomaly at epoch: 293.4748°
orbit number at epoch: 39737

The dashed part of the orbit path shows where the satellite is in the earth's shadow,  

DLR